Time,TemperatureF,DewpointF,PressureIn,WindDirection,WindDirectionDegrees,WindSpeedMPH,WindSpeedGustMPH,Humidity,HourlyPrecipIn,Conditions,Clouds,dailyrainin,SolarRadiationWatts/m^2,SoftwareType,DateUTC
2013-03-12 00:22:00,21.0,17.0,-100.00,NNE,30,0.0,3.0,84,0.00,,,0.10,0.000000,,2013-03-12 08:22:00,
2013-03-12 00:32:00,21.0,17.0,-100.00,NNE,30,0.0,3.0,84,0.00,,,0.10,0.000000,,2013-03-12 08:32:00,
2013-03-12 00:42:00,21.0,17.0,-100.00,NNE,30,0.0,3.0,84,0.00,,,0.10,0.000000,,2013-03-12 08:42:00,
2013-03-12 00:51:00,21.0,17.0,-100.00,NNE,30,0.0,3.0,84,0.00,,,0.10,0.000000,,2013-03-12 08:51:00,
2013-03-12 01:12:00,20.0,14.0,-100.00,East,84,0.0,2.0,78,0.00,,,0.10,0.000000,,2013-03-12 09:12:00,
2013-03-12 01:22:00,20.0,14.0,-100.00,East,84,0.0,2.0,78,0.00,,,0.10,0.000000,,2013-03-12 09:22:00,
2013-03-12 01:32:00,20.0,14.0,-100.00,East,84,0.0,2.0,78,0.00,,,0.10,0.000000,,2013-03-12 09:32:00,
2013-03-12 02:22:00,19.0,14.0,-100.00,WSW,249,0.0,2.0,81,0.00,,,0.10,0.000000,,2013-03-12 10:22:00,
2013-03-12 02:32:00,19.0,14.0,-100.00,WSW,249,0.0,2.0,81,0.00,,,0.10,0.000000,,2013-03-12 10:32:00,
2013-03-12 02:42:00,19.0,14.0,-100.00,WSW,249,0.0,2.0,81,0.00,,,0.10,0.000000,,2013-03-12 10:42:00,
2013-03-12 02:52:00,19.0,14.0,-100.00,WSW,249,0.0,2.0,81,0.00,,,0.10,0.000000,,2013-03-12 10:52:00,
2013-03-12 03:22:00,18.0,13.0,-100.00,SW,234,0.0,4.0,79,0.00,,,0.10,0.000000,,2013-03-12 11:22:00,
2013-03-12 03:32:00,18.0,13.0,-100.00,SW,234,0.0,4.0,79,0.00,,,0.10,0.000000,,2013-03-12 11:32:00,
2013-03-12 03:42:00,18.0,13.0,-100.00,SW,234,0.0,4.0,79,0.00,,,0.10,0.000000,,2013-03-12 11:42:00,
2013-03-12 03:52:00,18.0,13.0,-100.00,SW,234,0.0,4.0,79,0.00,,,0.10,0.000000,,2013-03-12 11:52:00,
2013-03-12 04:22:00,17.0,13.0,-100.00,North,352,0.0,1.0,83,0.00,,,0.10,0.000000,,2013-03-12 12:22:00,
2013-03-12 04:32:00,17.0,13.0,-100.00,North,352,0.0,1.0,83,0.00,,,0.10,0.000000,,2013-03-12 12:32:00,
2013-03-12 04:42:00,17.0,13.0,-100.00,North,352,0.0,1.0,83,0.00,,,0.10,0.000000,,2013-03-12 12:42:00,
2013-03-12 04:52:00,17.0,13.0,-100.00,North,352,0.0,1.0,83,0.00,,,0.10,0.000000,,2013-03-12 12:52:00,
2013-03-12 05:12:00,16.0,12.0,-100.00,NW,315,0.0,1.0,83,0.00,,,0.10,0.000000,,2013-03-12 13:12:00,
2013-03-12 05:22:00,16.0,12.0,-100.00,NW,315,0.0,1.0,83,0.00,,,0.10,0.000000,,2013-03-12 13:22:00,
2013-03-12 05:42:00,16.0,12.0,-100.00,NW,315,0.0,1.0,83,0.00,,,0.10,0.000000,,2013-03-12 13:42:00,
2013-03-12 05:52:00,16.0,12.0,-100.00,NW,315,0.0,1.0,83,0.00,,,0.10,0.000000,,2013-03-12 13:52:00,
2013-03-12 06:22:00,16.0,11.0,-100.00,WNW,298,1.0,1.0,81,0.00,,,0.10,0.000000,,2013-03-12 14:22:00,
2013-03-12 06:32:00,16.0,11.0,-100.00,WNW,298,1.0,1.0,81,0.00,,,0.10,0.000000,,2013-03-12 14:32:00,
2013-03-12 06:42:00,16.0,11.0,-100.00,WNW,298,1.0,1.0,81,0.00,,,0.10,0.000000,,2013-03-12 14:42:00,
2013-03-12 06:52:00,16.0,11.0,-100.00,WNW,298,1.0,1.0,81,0.00,,,0.10,0.000000,,2013-03-12 14:52:00,
2013-03-12 07:12:00,13.0,10.0,-100.00,NNW,337,0.0,2.0,86,0.00,,,0.10,0.000000,,2013-03-12 15:12:00,
2013-03-12 07:22:00,13.0,10.0,-100.00,NNW,337,0.0,2.0,86,0.00,,,0.10,0.000000,,2013-03-12 15:22:00,
2013-03-12 07:32:00,13.0,10.0,-100.00,NNW,337,0.0,2.0,86,0.00,,,0.10,0.000000,,2013-03-12 15:32:00,
2013-03-12 08:22:00,12.0,9.0,-100.00,NW,308,0.0,1.0,88,-99.99,,,0.10,0.000000,,2013-03-12 16:22:00,
2013-03-12 08:32:00,12.0,9.0,-100.00,NW,308,0.0,1.0,88,-99.99,,,0.10,0.000000,,2013-03-12 16:32:00,
2013-03-12 08:42:00,12.0,9.0,-100.00,NW,308,0.0,1.0,88,-99.99,,,0.10,0.000000,,2013-03-12 16:42:00,
2013-03-12 08:52:00,12.0,9.0,-100.00,NW,308,0.0,1.0,88,-99.99,,,0.10,0.000000,,2013-03-12 16:52:00,
2013-03-12 09:22:00,12.0,9.0,-100.00,WNW,297,0.0,1.0,88,0.00,,,0.10,4.000000,,2013-03-12 17:22:00,
2013-03-12 09:33:00,12.0,9.0,-100.00,WNW,297,0.0,1.0,88,0.00,,,0.10,4.000000,,2013-03-12 17:33:00,
2013-03-12 09:43:00,12.0,9.0,-100.00,WNW,297,0.0,1.0,88,0.00,,,0.10,4.000000,,2013-03-12 17:43:00,
2013-03-12 09:53:00,12.0,9.0,-100.00,WNW,297,0.0,1.0,88,0.00,,,0.10,4.000000,,2013-03-12 17:53:00,
2013-03-12 10:12:00,15.0,10.0,-100.00,SW,231,0.0,3.0,79,-99.99,,,0.10,29.000000,,2013-03-12 18:12:00,
2013-03-12 10:22:00,15.0,10.0,-100.00,SW,231,0.0,3.0,79,-99.99,,,0.10,29.000000,,2013-03-12 18:22:00,
2013-03-12 10:33:00,15.0,10.0,-100.00,SW,231,0.0,3.0,79,-99.99,,,0.10,29.000000,,2013-03-12 18:33:00,
2013-03-12 10:42:00,15.0,10.0,-100.00,SW,231,0.0,3.0,79,-99.99,,,0.10,29.000000,,2013-03-12 18:42:00,
2013-03-12 10:52:00,15.0,10.0,-100.00,SW,231,0.0,3.0,79,-99.99,,,0.10,29.000000,,2013-03-12 18:52:00,
2013-03-12 11:22:00,24.0,14.0,-100.00,WSW,239,0.0,3.0,64,0.00,,,-99.99,111.000000,,2013-03-12 19:22:00,
2013-03-12 11:32:00,24.0,14.0,-100.00,WSW,239,0.0,3.0,64,0.00,,,-99.99,111.000000,,2013-03-12 19:32:00,
2013-03-12 11:43:00,24.0,14.0,-100.00,WSW,239,0.0,3.0,64,0.00,,,-99.99,111.000000,,2013-03-12 19:43:00,
2013-03-12 11:52:00,24.0,14.0,-100.00,WSW,239,0.0,3.0,64,0.00,,,-99.99,111.000000,,2013-03-12 19:52:00,
2013-03-12 12:22:00,31.0,8.0,-100.00,NNE,15,2.0,6.0,38,0.00,,,0.10,284.000000,,2013-03-12 20:22:00,
2013-03-12 12:32:00,31.0,8.0,-100.00,NNE,15,2.0,6.0,38,0.00,,,0.10,284.000000,,2013-03-12 20:32:00,
2013-03-12 12:42:00,31.0,8.0,-100.00,NNE,15,2.0,6.0,38,0.00,,,0.10,284.000000,,2013-03-12 20:42:00,
2013-03-12 12:52:00,31.0,8.0,-100.00,NNE,15,2.0,6.0,38,0.00,,,0.10,284.000000,,2013-03-12 20:52:00,
2013-03-12 13:22:00,34.0,7.0,-100.00,NE,56,2.0,6.0,32,0.00,,,0.10,483.000000,,2013-03-12 21:22:00,
2013-03-12 13:32:00,34.0,7.0,-100.00,NE,56,2.0,6.0,32,0.00,,,0.10,483.000000,,2013-03-12 21:32:00,
2013-03-12 13:42:00,34.0,7.0,-100.00,NE,56,2.0,6.0,32,0.00,,,0.10,483.000000,,2013-03-12 21:42:00,
2013-03-12 13:52:00,34.0,7.0,-100.00,NE,56,2.0,6.0,32,0.00,,,0.10,483.000000,,2013-03-12 21:52:00,
2013-03-12 14:22:00,38.0,6.0,-100.00,NNE,14,3.0,9.0,26,0.00,,,0.09,531.000000,,2013-03-12 22:22:00,
2013-03-12 14:32:00,38.0,6.0,-100.00,NNE,14,3.0,9.0,26,0.00,,,0.09,531.000000,,2013-03-12 22:32:00,
2013-03-12 14:42:00,38.0,6.0,-100.00,NNE,14,3.0,9.0,26,0.00,,,0.09,531.000000,,2013-03-12 22:42:00,
2013-03-12 14:52:00,38.0,6.0,-100.00,NNE,14,3.0,9.0,26,0.00,,,0.09,531.000000,,2013-03-12 22:52:00,
2013-03-12 15:22:00,40.0,5.0,-100.00,NNE,32,3.0,8.0,23,0.00,,,0.07,563.000000,,2013-03-12 23:22:00,
2013-03-12 15:43:00,40.0,5.0,-100.00,NNE,32,3.0,8.0,23,0.00,,,0.07,563.000000,,2013-03-12 23:43:00,
2013-03-12 15:52:00,40.0,5.0,-100.00,NNE,32,3.0,8.0,23,0.00,,,0.07,563.000000,,2013-03-12 23:52:00,
2013-03-12 16:12:00,38.0,10.0,-100.00,NE,53,2.0,7.0,31,0.00,,,0.04,531.000000,,2013-03-13 00:12:00,
2013-03-12 16:22:00,38.0,10.0,-100.00,NE,53,2.0,7.0,31,0.00,,,0.04,531.000000,,2013-03-13 00:22:00,
2013-03-12 16:33:00,38.0,10.0,-100.00,NE,53,2.0,7.0,31,0.00,,,0.04,531.000000,,2013-03-13 00:33:00,
2013-03-12 16:42:00,38.0,10.0,-100.00,NE,53,2.0,7.0,31,0.00,,,0.04,531.000000,,2013-03-13 00:42:00,
2013-03-12 16:52:00,38.0,10.0,-100.00,NE,53,2.0,7.0,31,0.00,,,0.04,531.000000,,2013-03-13 00:52:00,
2013-03-12 17:12:00,38.0,4.0,-100.00,North,357,3.0,9.0,24,0.00,,,0.02,454.000000,,2013-03-13 01:12:00,
2013-03-12 17:22:00,38.0,4.0,-100.00,North,357,3.0,9.0,24,0.00,,,0.02,454.000000,,2013-03-13 01:22:00,
2013-03-12 17:32:00,38.0,4.0,-100.00,North,357,3.0,9.0,24,0.00,,,0.02,454.000000,,2013-03-13 01:32:00,
2013-03-12 17:42:00,38.0,4.0,-100.00,North,357,3.0,9.0,24,0.00,,,0.02,454.000000,,2013-03-13 01:42:00,
2013-03-12 17:52:00,38.0,4.0,-100.00,North,357,3.0,9.0,24,0.00,,,0.02,454.000000,,2013-03-13 01:52:00,
2013-03-12 18:12:00,37.0,4.0,-100.00,North,3,3.0,11.0,24,0.00,,,0.00,338.000000,,2013-03-13 02:12:00,
2013-03-12 18:22:00,37.0,4.0,-100.00,North,3,3.0,11.0,24,0.00,,,0.00,338.000000,,2013-03-13 02:22:00,
2013-03-12 18:32:00,37.0,4.0,-100.00,North,3,3.0,11.0,24,0.00,,,0.00,338.000000,,2013-03-13 02:32:00,
2013-03-12 18:42:00,37.0,4.0,-100.00,North,3,3.0,11.0,24,0.00,,,0.00,338.000000,,2013-03-13 02:42:00,
2013-03-12 18:52:00,37.0,4.0,-100.00,North,3,3.0,11.0,24,0.00,,,0.00,338.000000,,2013-03-13 02:52:00,
2013-03-12 19:12:00,31.0,3.0,-100.00,North,2,2.0,8.0,30,0.00,,,0.00,163.000000,,2013-03-13 03:12:00,
2013-03-12 19:22:00,31.0,3.0,-100.00,North,2,2.0,8.0,30,0.00,,,0.00,163.000000,,2013-03-13 03:22:00,
2013-03-12 19:32:00,31.0,3.0,-100.00,North,2,2.0,8.0,30,0.00,,,0.00,163.000000,,2013-03-13 03:32:00,
2013-03-12 19:42:00,31.0,3.0,-100.00,North,2,2.0,8.0,30,0.00,,,0.00,163.000000,,2013-03-13 03:42:00,
2013-03-12 19:51:00,31.0,3.0,-100.00,North,2,2.0,8.0,30,0.00,,,0.00,163.000000,,2013-03-13 03:51:00,
2013-03-12 20:22:00,27.0,6.0,-100.00,NNW,331,1.0,6.0,40,0.00,,,0.00,21.000000,,2013-03-13 04:22:00,
2013-03-12 20:32:00,27.0,6.0,-100.00,NNW,331,1.0,6.0,40,0.00,,,0.00,21.000000,,2013-03-13 04:32:00,
2013-03-12 20:42:00,27.0,6.0,-100.00,NNW,331,1.0,6.0,40,0.00,,,0.00,21.000000,,2013-03-13 04:42:00,
2013-03-12 20:52:00,27.0,6.0,-100.00,NNW,331,1.0,6.0,40,0.00,,,0.00,21.000000,,2013-03-13 04:52:00,
2013-03-12 21:22:00,23.0,3.0,-100.00,NNE,30,0.0,6.0,42,0.00,,,0.00,1.000000,,2013-03-13 05:22:00,
2013-03-12 21:32:00,23.0,3.0,-100.00,NNE,30,0.0,6.0,42,0.00,,,0.00,1.000000,,2013-03-13 05:32:00,
2013-03-12 21:42:00,23.0,3.0,-100.00,NNE,30,0.0,6.0,42,0.00,,,0.00,1.000000,,2013-03-13 05:42:00,
2013-03-12 21:52:00,23.0,3.0,-100.00,NNE,30,0.0,6.0,42,0.00,,,0.00,1.000000,,2013-03-13 05:52:00,
2013-03-12 22:22:00,20.0,4.0,-100.00,WSW,246,0.0,3.0,50,0.00,,,0.00,0.000000,,2013-03-13 06:22:00,
2013-03-12 22:32:00,20.0,4.0,-100.00,WSW,246,0.0,3.0,50,0.00,,,0.00,0.000000,,2013-03-13 06:32:00,
2013-03-12 22:42:00,20.0,4.0,-100.00,WSW,246,0.0,3.0,50,0.00,,,0.00,0.000000,,2013-03-13 06:42:00,
2013-03-12 22:52:00,20.0,4.0,-100.00,WSW,246,0.0,3.0,50,0.00,,,0.00,0.000000,,2013-03-13 06:52:00,
2013-03-12 23:12:00,18.0,5.0,-100.00,NNE,13,0.0,3.0,57,0.00,,,0.00,0.000000,,2013-03-13 07:12:00,
2013-03-12 23:22:00,18.0,5.0,-100.00,NNE,13,0.0,3.0,57,0.00,,,0.00,0.000000,,2013-03-13 07:22:00,
2013-03-12 23:32:00,18.0,5.0,-100.00,NNE,13,0.0,3.0,57,0.00,,,0.00,0.000000,,2013-03-13 07:32:00,
2013-03-12 23:42:00,18.0,5.0,-100.00,NNE,13,0.0,3.0,57,0.00,,,0.00,0.000000,,2013-03-13 07:42:00,
2013-03-12 23:52:00,18.0,5.0,-100.00,NNE,13,0.0,3.0,57,0.00,,,0.00,0.000000,,2013-03-13 07:52:00,